This demonstration page uses our WeatherBlox Daily Observations layout. Learn more.

39.92423, -83.80882

Hourly Observations for May 14, 2016

Temp ( °F °C ) Dew Point ( °F °C ) Humidity (%) Winds ( mph kmh ) Pressure ( in mb ) Visibility ( mi km ) Precip ( " mm )
12:56 am 00:56 Clear 56 13.3 48 8.8 74 74 S 6 9 29.89 1012 10 16.0934 0 0
1:56 am 01:56 Clear 56 13.3 49 9.4 77 77 SSW 10 17 29.85 1011 10 16.0934 0 0
2:56 am 02:56 Clear 56 13.3 49 9.4 77 77 S 8 13 29.8 1009 10 16.0934 0 0
3:38 am 03:38 Mostly Cloudy with Light Rain 55 13 50 10 82 82 S 10 17 29.8 1009 4 6.43736 0.02 0.508
3:56 am 03:56 Cloudy 55 12.7 51 10.5 87 87 S 13 20 29.77 1008 10 16.0934 0.02 0.508
4:56 am 04:56 Mostly Cloudy 55 12.7 52 11.1 90 90 S 9 15 29.74 1007 10 16.0934 0.01 0.254
5:07 am 05:07 Mostly Cloudy with Rain 54 12 52 11 94 94 S 10 17 29.77 1008 2.5 4.02335 0.04 1.016
5:19 am 05:19 Cloudy with Light Rain 54 12 54 12 100 100 S 8 13 29.77 1008 6 9.65604 0.07 1.778
5:56 am 05:56 Cloudy with Rain 54 12.2 52 11.1 93 93 S 14 22 29.74 1007 3 4.82802 0.11 2.794
6:03 am 06:03 Mostly Cloudy with Rain 54 12 54 12 100 100 S 13 20 29.74 1007 2.5 4.02335 0.03 0.762
6:14 am 06:14 Mostly Cloudy with Light Rain 54 12 54 12 100 100 SSW 16 26 29.74 1007 5 8.0467 0.05 1.27
6:23 am 06:23 Cloudy with Light Rain 54 12 54 12 100 100 SSW 14 22 29.74 1007 6 9.65604 0.06 1.524
6:31 am 06:31 Cloudy with Light Rain 54 12 54 12 100 100 SW 15 24 29.74 1007 5 8.0467 0.07 1.778
6:49 am 06:49 Cloudy with Light Rain 54 12 54 12 100 100 SSW 17 28 29.74 1007 10 16.0934 0.08 2.032
6:56 am 06:56 Cloudy 55 12.7 54 12.2 97 97 SW 17 28 29.74 1007 10 16.0934 0.08 2.032
7:38 am 07:38 Cloudy 48 9 46 8 94 94 WSW 18 30 29.8 1009 10 16.0934 0 0
7:56 am 07:56 Cloudy 48 8.8 46 7.7 93 93 WSW 20 31 29.81 1010 10 16.0934 0 0
8:28 am 08:28 Cloudy 48 9 46 8 94 94 WSW 18 30 29.83 1010 10 16.0934 0 0
8:56 am 08:56 Cloudy 48 8.8 44 6.6 86 86 W 21 33 29.84 1011 10 16.0934 0 0
9:27 am 09:27 Cloudy 46 8 41 5 82 82 WSW 17 28 29.88 1012 10 16.0934 0 0
9:56 am 09:56 Cloudy 48 8.8 41 5 77 77 WSW 21 33 29.86 1011 10 16.0934 0 0
10:19 am 10:19 Cloudy 46 8 39 4 76 76 W 16 26 29.91 1013 10 16.0934 0 0
10:29 am 10:29 Cloudy 46 8 41 5 82 82 WSW 18 30 29.91 1013 10 16.0934 0 0
10:56 am 10:56 Cloudy 49 9.4 40 4.4 71 71 W 20 31 29.88 1012 10 16.0934 0 0
11:56 am 11:56 Cloudy 47 8.3 40 4.4 77 77 W 16 26 29.91 1013 10 16.0934 0 0
12:17 pm 12:17 Cloudy 48 9 39 4 71 71 W 16 26 29.94 1014 10 16.0934 0 0
12:56 pm 12:56 Cloudy with Light Rain 48 8.8 41 5 77 77 W 24 39 29.93 1014 6 9.65604 0 0.0254
1:13 pm 13:13 Cloudy 46 8 41 5 82 82 WSW 17 28 29.97 1015 9 14.48406 0 0.0254
1:56 pm 13:56 Mostly Sunny 49 9.4 39 3.8 68 68 WSW 20 31 29.93 1014 10 16.0934 0 0.0254
2:35 pm 14:35 Mostly Cloudy 48 9 39 4 71 71 WSW 21 33 29.97 1015 10 16.0934 0 0
2:56 pm 14:56 Mostly Cloudy 47 8.3 39 3.8 74 74 W 17 28 29.96 1014 10 16.0934 0 0.0254
3:05 pm 15:05 Mostly Cloudy 48 9 39 4 71 71 W 18 30 30 1016 10 16.0934 0 0
3:22 pm 15:22 Mostly Cloudy 48 9 37 3 66 66 W 17 28 30 1016 10 16.0934 0 0
3:56 pm 15:56 Cloudy 48 8.8 38 3.3 69 69 WSW 15 24 29.97 1015 10 16.0934 0 0
4:56 pm 16:56 Cloudy 45 7.2 37 2.7 73 73 WSW 14 22 30 1016 10 16.0934 0 0
5:56 pm 17:56 Mostly Cloudy 45 7.2 36 2.2 71 71 W 12 19 30.01 1016 10 16.0934 0 0
6:56 pm 18:56 Cloudy 46 7.7 35 1.6 66 66 W 15 24 30.01 1016 10 16.0934 0 0
7:56 pm 19:56 Cloudy 45 7.2 34 1.1 66 66 WSW 13 20 30.02 1017 10 16.0934 0 0
8:56 pm 20:56 Cloudy 45 7.2 37 2.7 73 73 WSW 9 15 30.03 1017 10 16.0934 0 0
9:56 pm 21:56 Cloudy 45 7.2 35 1.6 68 68 WSW 13 20 30.04 1017 10 16.0934 0 0
10:56 pm 22:56 Cloudy with Light Rain 41 5 37 2.7 85 85 WNW 9 15 30.06 1018 10 16.0934 0 0.0254
11:56 pm 23:56 Cloudy 42 5.5 37 2.7 82 82 WSW 8 13 30.07 1018 10 16.0934 0 0.0254

Powered by AerisWeather